�N����,����,�~����,�C��,���x,�C��,����,���ϕ���,�ő�u�ԕ���,�ő厞����,���˗�,�I�_���x,�n�����x,�ő啗���N��,DTYPE
"21/03/29","00:10",0.0,15.1,96.9,1001.0,323.6,2.0,3.2,312.4,0.00,14.7,130.0,"00:08:24",1
"21/03/29","00:20",0.0,15.1,97.0,1001.0,323.0,2.3,3.5,332.3,0.00,14.7,130.0,"00:13:36",1
"21/03/29","00:30",0.0,15.0,97.0,1001.0,319.2,1.7,2.7,331.9,0.00,14.6,130.0,"00:23:04",1
"21/03/29","00:40",0.0,14.8,97.1,1001.0,320.8,2.1,2.7,336.1,0.00,14.4,130.0,"00:34:16",1
"21/03/29","00:50",0.0,14.7,97.1,1000.8,295.1,1.3,1.9,324.5,0.00,14.3,130.0,"00:45:44",1
"21/03/29","01:00",0.0,14.6,97.2,1001.2,314.0,0.8,1.9,305.5,0.00,14.2,130.0,"00:58:40",1
"21/03/29","01:10",0.0,14.7,97.2,1001.0,277.1,1.1,2.1,267.3,0.00,14.3,130.0,"01:06:24",1
"21/03/29","01:20",0.0,14.5,97.2,1001.0,325.2,1.0,1.4,326.2,0.00,14.1,130.0,"01:12:16",1
"21/03/29","01:30",0.0,14.3,97.4,1001.2,339.4,1.5,2.5,350.1,0.00,13.9,130.0,"01:24:56",1
"21/03/29","01:40",0.0,13.9,97.4,1001.0,329.3,1.3,1.9,336.4,0.00,13.5,130.0,"01:30:40",1
"21/03/29","01:50",0.0,13.5,97.5,1001.0,315.6,1.2,1.8,337.3,0.00,13.2,130.0,"01:47:20",1
"21/03/29","02:00",0.0,13.5,97.7,1000.8,297.2,0.7,1.7,311.6,0.00,13.2,130.0,"01:52:56",1
"21/03/29","02:10",0.0,13.4,97.6,1001.0,326.2,0.6,1.4,311.1,0.00,13.1,130.0,"02:06:16",1
"21/03/29","02:20",0.2,13.0,97.7,1001.0,302.7,0.8,1.3,319.5,0.00,12.7,130.0,"02:12:40",1
"21/03/29","02:30",0.0,12.9,97.9,1001.5,331.3,1.3,2.7,339.9,0.00,12.6,130.0,"02:28:08",1
"21/03/29","02:40",0.0,12.7,97.9,1000.8,313.4,0.8,1.3,336.6,0.00,12.4,130.0,"02:31:36",1
"21/03/29","02:50",0.0,12.5,98.0,1000.8,301.1,1.0,1.7,320.0,0.00,12.2,130.0,"02:43:44",1
"21/03/29","03:00",0.0,12.6,97.6,1000.5,342.3,0.5,1.2,101.2,0.00,12.3,130.0,"02:54:00",1
"21/03/29","03:10",0.0,12.6,98.1,1000.8,273.0,1.2,1.7,304.9,0.00,12.3,130.0,"03:09:16",1
"21/03/29","03:20",0.0,12.7,97.6,1001.0,278.3,0.8,1.1,278.0,0.00,12.4,130.0,"03:17:36",1
"21/03/29","03:30",0.0,12.5,98.1,1001.0,23.0,0.2,1.1,54.7,0.00,12.2,130.0,"03:20:48",1
"21/03/29","03:40",0.0,12.5,97.7,1000.8,298.5,0.7,1.1,306.1,0.00,12.2,130.0,"03:37:28",1
"21/03/29","03:50",0.0,12.4,98.2,1001.2,326.8,1.2,2.2,338.4,0.00,12.2,130.0,"03:42:56",1
"21/03/29","04:00",0.0,12.7,97.8,1001.2,269.1,0.7,1.2,244.2,0.00,12.4,130.0,"03:54:16",1
"21/03/29","04:10",0.0,12.9,98.2,1001.5,330.2,0.7,1.6,333.8,0.00,12.7,130.0,"04:00:16",1
"21/03/29","04:20",0.0,13.1,97.6,1001.5,273.7,0.5,1.1,262.8,0.00,12.8,130.0,"04:13:44",1
"21/03/29","04:30",0.0,13.0,98.2,1001.5,123.5,0.3,0.9,121.7,0.00,12.8,130.0,"04:26:48",1
"21/03/29","04:40",0.0,13.1,97.6,1001.2,280.6,0.6,1.3,315.2,0.00,12.8,130.0,"04:34:16",1
"21/03/29","04:50",0.0,12.9,98.1,1001.7,307.3,0.5,1.0,313.6,0.00,12.6,130.0,"04:40:48",1
"21/03/29","05:00",0.0,13.2,97.8,1001.7,340.6,1.0,2.1,325.0,0.00,12.9,130.0,"04:53:20",1
"21/03/29","05:10",0.0,13.3,98.2,1001.7,343.0,0.7,1.3,334.8,0.00,13.1,130.0,"05:09:44",1
"21/03/29","05:20",0.0,13.1,97.6,1001.5,297.0,1.0,1.6,324.1,0.00,12.8,130.0,"05:13:04",1
"21/03/29","05:30",0.0,13.0,98.2,1001.7,313.5,0.6,1.3,324.7,0.00,12.8,130.0,"05:23:20",1
"21/03/29","05:40",0.0,12.9,97.8,1001.7,347.1,0.6,1.2,322.3,0.00,12.6,130.0,"05:36:00",1
"21/03/29","05:50",0.0,12.7,98.2,1002.2,316.4,0.8,1.6,314.2,0.00,12.5,130.0,"05:45:12",1
"21/03/29","06:00",0.0,12.9,97.9,1002.4,331.9,1.0,2.1,336.1,0.00,12.6,130.0,"05:58:32",1
"21/03/29","06:10",0.0,12.5,98.3,1002.4,294.8,0.8,1.8,314.7,0.00,12.3,130.0,"06:00:40",1
"21/03/29","06:20",0.0,12.7,97.9,1002.4,344.8,0.6,1.4,341.4,0.00,12.4,130.0,"06:19:20",1
"21/03/29","06:30",0.0,12.4,98.4,1002.2,352.4,0.7,1.8,3.5,0.00,12.2,130.0,"06:20:16",1
"21/03/29","06:40",0.0,12.3,98.0,1002.6,330.6,1.0,2.0,332.7,0.00,12.0,130.0,"06:36:00",1
"21/03/29","06:50",0.0,12.5,98.1,1002.4,306.8,1.0,1.3,334.8,0.02,12.2,130.0,"06:46:32",1
"21/03/29","07:00",0.0,13.0,98.1,1003.1,311.7,0.8,1.6,325.4,0.03,12.7,130.0,"06:52:40",1
"21/03/29","07:10",0.0,13.6,98.0,1003.4,285.8,0.6,1.1,276.6,0.05,13.3,130.0,"07:05:12",1
"21/03/29","07:20",0.0,14.1,97.9,1003.1,319.1,1.5,1.9,325.5,0.06,13.8,130.0,"07:19:52",1
"21/03/29","07:30",0.0,14.1,98.4,1003.4,305.0,1.5,2.5,332.9,0.07,13.9,130.0,"07:21:44",1
"21/03/29","07:40",0.0,14.8,97.7,1003.1,270.8,0.7,1.2,261.6,0.09,14.5,130.0,"07:30:16",1
"21/03/29","07:50",0.0,15.1,98.1,1003.4,155.4,0.8,1.6,164.8,0.13,14.8,130.0,"07:42:08",1
"21/03/29","08:00",0.0,15.3,97.7,1003.4,125.0,1.0,2.0,128.3,0.15,15.0,130.0,"07:58:00",1
"21/03/29","08:10",0.0,15.0,98.0,1003.8,100.8,1.1,2.4,97.4,0.15,14.7,130.0,"08:09:12",1
"21/03/29","08:20",0.0,15.7,97.8,1003.6,36.7,0.6,1.8,146.9,0.18,15.4,130.0,"08:13:20",1
"21/03/29","08:30",0.0,15.4,97.7,1003.8,250.9,1.1,3.7,230.4,0.11,15.1,130.0,"08:28:24",1
"21/03/29","08:40",0.0,15.5,97.6,1003.8,282.5,1.1,4.0,234.5,0.14,15.2,130.0,"08:38:00",1
"21/03/29","08:50",0.0,15.5,97.7,1003.8,297.2,1.0,1.9,339.8,0.12,15.2,130.0,"08:46:32",1
"21/03/29","09:00",0.0,15.2,97.4,1003.6,302.6,1.1,2.9,336.1,0.10,14.8,130.0,"08:50:02",1
"21/03/29","09:10",0.0,14.7,96.9,1003.8,327.0,2.7,5.2,340.9,0.19,14.3,130.0,"09:06:32",1
"21/03/29","09:20",0.0,15.0,96.3,1004.5,324.1,2.6,4.2,338.4,0.22,14.5,130.0,"09:10:48",1
"21/03/29","09:30",0.0,15.3,95.7,1004.1,315.4,2.1,3.7,341.5,0.15,14.7,130.0,"09:23:28",1
"21/03/29","09:40",0.0,16.1,95.7,1004.1,322.1,1.6,4.1,332.8,0.25,15.5,130.0,"09:34:48",1
"21/03/29","09:50",0.0,17.0,94.2,1003.6,249.4,0.8,1.9,268.4,0.34,16.1,130.0,"09:48:24",1
"21/03/29","10:00",0.0,17.3,93.4,1003.6,227.5,0.7,1.9,154.2,0.29,16.3,130.0,"09:55:44",1
"21/03/29","10:10",0.0,17.9,90.6,1003.1,174.3,1.2,3.2,155.3,0.52,16.4,130.0,"10:09:52",1
"21/03/29","10:20",0.0,17.1,86.0,1003.4,155.3,2.3,4.1,149.7,0.22,14.8,130.0,"10:18:24",1
"21/03/29","10:30",0.0,17.4,83.9,1003.4,155.5,2.2,3.7,152.7,0.19,14.7,130.0,"10:25:44",1
"21/03/29","10:40",0.0,18.5,80.1,1003.4,203.3,1.6,3.5,210.1,0.47,15.0,130.0,"10:30:48",1
"21/03/29","10:50",0.0,18.9,75.7,1003.1,240.0,1.6,3.7,230.4,0.32,14.6,130.0,"10:47:28",1
"21/03/29","11:00",0.0,18.2,75.2,1002.9,188.8,2.2,4.0,202.4,0.27,13.8,130.0,"10:58:32",1
"21/03/29","11:10",0.0,18.7,74.1,1002.6,177.6,2.2,4.9,196.2,0.51,14.0,130.0,"11:07:20",1
"21/03/29","11:20",0.0,19.0,72.4,1002.6,186.1,2.6,5.1,151.4,0.46,14.0,130.0,"11:10:32",1
"21/03/29","11:30",0.0,19.0,73.3,1002.4,177.9,2.6,4.8,133.6,0.32,14.2,130.0,"11:24:56",1
"21/03/29","11:40",0.0,19.3,71.2,1002.4,157.6,2.5,4.1,149.3,0.53,14.0,130.0,"11:36:40",1
"21/03/29","11:50",0.0,20.0,69.4,1001.7,166.4,2.5,4.3,135.4,0.57,14.3,130.0,"11:42:32",1
"21/03/29","12:00",0.0,19.7,67.5,1001.9,167.1,2.5,4.4,212.9,0.47,13.6,130.0,"11:54:56",1
"21/03/29","12:10",0.0,19.8,68.0,1001.7,169.9,2.7,5.2,132.8,0.41,13.8,130.0,"12:08:56",1
"21/03/29","12:20",0.0,20.3,67.2,1001.5,173.3,2.8,4.5,123.2,0.58,14.1,130.0,"12:12:48",1
"21/03/29","12:30",0.0,20.5,66.2,1001.5,181.6,3.2,5.4,190.9,0.57,14.0,130.0,"12:28:48",1
"21/03/29","12:40",0.0,20.7,66.3,1001.2,165.0,2.6,4.4,146.2,0.56,14.2,130.0,"12:35:28",1
"21/03/29","12:50",0.0,20.4,65.9,1001.0,165.0,3.2,7.1,159.9,0.55,13.9,130.0,"12:43:52",1
"21/03/29","13:00",0.0,20.4,64.1,1000.5,160.6,3.4,6.2,130.7,0.55,13.4,130.0,"12:56:16",1
"21/03/29","13:10",0.0,20.6,63.7,1000.5,166.4,3.1,5.6,169.0,0.54,13.5,130.0,"13:08:16",1
"21/03/29","13:20",0.0,20.6,62.9,1000.3,163.9,4.1,7.1,133.3,0.54,13.3,130.0,"13:18:24",1
"21/03/29","13:30",0.0,20.9,62.3,1000.5,155.4,4.0,8.5,153.6,0.53,13.5,130.0,"13:28:40",1
"21/03/29","13:40",0.0,21.4,59.8,999.8,145.4,3.2,6.5,117.7,0.53,13.3,130.0,"13:38:40",1
"21/03/29","13:50",0.0,22.4,56.9,1000.0,214.7,2.2,5.0,188.4,0.52,13.5,130.0,"13:45:12",1
"21/03/29","14:00",0.0,22.4,55.4,999.8,39.2,1.8,5.0,101.9,0.51,13.1,130.0,"13:51:36",1
"21/03/29","14:10",0.0,22.9,52.1,1000.0,57.6,1.8,4.8,47.1,0.48,12.6,130.0,"14:03:04",1
"21/03/29","14:20",0.0,22.8,48.7,999.8,356.2,2.0,4.2,337.6,0.46,11.5,130.0,"14:19:44",1
"21/03/29","14:30",0.0,22.8,48.7,1000.0,230.4,2.2,4.8,229.1,0.44,11.5,130.0,"14:23:12",1
"21/03/29","14:40",0.0,23.2,47.0,999.6,273.9,1.8,4.5,317.6,0.42,11.3,130.0,"14:38:00",1
"21/03/29","14:50",0.0,22.8,46.6,999.6,224.0,2.1,4.1,213.0,0.40,10.8,130.0,"14:47:04",1
"21/03/29","15:00",0.0,23.4,46.9,999.6,245.3,1.3,3.5,184.6,0.39,11.5,130.0,"14:51:04",1
"21/03/29","15:10",0.0,23.2,45.4,999.3,299.5,1.5,5.0,137.6,0.36,10.8,130.0,"15:02:00",1
"21/03/29","15:20",0.0,23.0,49.2,999.1,237.8,1.7,4.1,232.8,0.36,11.8,130.0,"15:12:40",1
"21/03/29","15:30",0.0,23.2,45.7,999.6,273.5,1.5,3.6,233.4,0.34,10.9,130.0,"15:28:00",1
"21/03/29","15:40",0.0,23.2,46.6,999.8,273.7,1.7,3.5,305.9,0.31,11.2,130.0,"15:34:48",1
"21/03/29","15:50",0.0,23.2,45.3,999.8,335.7,1.1,3.1,343.9,0.28,10.8,130.0,"15:42:56",1
"21/03/29","16:00",0.0,23.2,45.9,999.8,239.6,1.1,2.5,353.8,0.25,11.0,130.0,"15:59:36",1
"21/03/29","16:10",0.0,22.6,48.8,999.3,167.3,1.3,3.2,197.2,0.22,11.3,130.0,"16:08:00",1
"21/03/29","16:20",0.0,22.3,50.5,999.8,203.4,1.7,4.5,166.5,0.20,11.6,130.0,"16:11:28",1
"21/03/29","16:30",0.0,21.7,52.4,999.8,171.0,2.5,5.7,174.7,0.18,11.6,130.0,"16:28:56",1
"21/03/29","16:40",0.0,21.3,53.9,999.8,176.3,3.2,6.3,130.1,0.15,11.6,130.0,"16:30:02",1
"21/03/29","16:50",0.0,21.3,54.7,1000.0,182.5,2.6,4.1,185.9,0.12,11.9,130.0,"16:43:28",1
"21/03/29","17:00",0.0,21.2,54.9,1000.0,174.7,2.2,4.5,137.2,0.10,11.8,130.0,"16:59:04",1
"21/03/29","17:10",0.0,21.0,55.5,1000.3,201.3,2.2,4.2,215.0,0.08,11.8,130.0,"17:02:16",1
"21/03/29","17:20",0.0,20.9,55.7,1000.5,196.2,2.1,3.3,221.5,0.06,11.8,130.0,"17:17:28",1
"21/03/29","17:30",0.0,20.8,56.6,1000.8,188.7,1.8,4.1,187.5,0.04,11.9,130.0,"17:23:04",1
"21/03/29","17:40",0.0,20.6,57.4,1000.8,202.5,1.7,3.1,218.4,0.03,11.9,130.0,"17:35:12",1
"21/03/29","17:50",0.0,20.5,57.9,1000.8,201.8,1.2,2.2,193.3,0.02,12.0,130.0,"17:46:24",1
"21/03/29","18:00",0.0,20.3,58.4,1001.0,209.0,1.0,2.0,218.6,0.01,11.9,130.0,"17:56:32",1
"21/03/29","18:10",0.0,20.2,58.7,1001.2,194.3,1.2,3.3,191.8,0.00,11.9,130.0,"18:09:04",1
"21/03/29","18:20",0.0,20.0,59.1,1001.7,178.2,2.0,3.4,168.0,0.00,11.8,130.0,"18:16:00",1
"21/03/29","18:30",0.0,19.0,60.5,1001.9,120.9,2.5,4.1,143.9,0.00,11.2,130.0,"18:21:52",1
"21/03/29","18:40",0.0,18.5,62.2,1001.9,117.8,2.0,3.4,109.5,0.00,11.2,130.0,"18:30:16",1
"21/03/29","18:50",0.0,18.0,64.0,1002.4,126.5,2.0,3.9,126.8,0.00,11.1,130.0,"18:42:48",1
"21/03/29","19:00",0.0,17.7,66.1,1002.9,113.6,2.0,4.9,117.2,0.00,11.3,130.0,"18:58:00",1
"21/03/29","19:10",0.0,17.6,67.7,1002.6,91.2,1.3,3.1,103.0,0.00,11.6,130.0,"19:02:08",1
"21/03/29","19:20",0.0,17.4,69.2,1002.6,101.8,1.6,3.3,118.2,0.00,11.7,130.0,"19:12:48",1
"21/03/29","19:30",0.0,17.1,70.4,1003.4,107.9,1.1,2.2,76.9,0.00,11.7,130.0,"19:20:24",1
"21/03/29","19:40",0.0,16.9,71.8,1003.4,128.4,1.5,2.6,147.5,0.00,11.8,130.0,"19:34:00",1
"21/03/29","19:50",0.0,16.6,73.2,1003.6,120.2,2.0,3.5,117.0,0.00,11.8,130.0,"19:43:52",1
"21/03/29","20:00",0.0,16.4,74.6,1003.4,126.9,1.5,2.7,100.8,0.00,11.9,130.0,"19:52:08",1
"21/03/29","20:10",0.0,16.2,76.0,1003.8,111.2,1.5,3.1,123.3,0.00,12.0,130.0,"20:06:56",1
"21/03/29","20:20",0.0,16.2,76.6,1004.1,81.2,1.1,2.6,116.7,0.00,12.1,130.0,"20:10:56",1
"21/03/29","20:30",0.0,16.3,76.8,1004.1,57.2,0.8,2.1,105.1,0.00,12.3,130.0,"20:21:36",1
"21/03/29","20:40",0.0,16.1,77.2,1003.8,34.8,0.7,1.9,52.5,0.00,12.1,130.0,"20:30:02",1
"21/03/29","20:50",0.0,15.9,77.6,1004.1,51.2,0.6,1.9,53.0,0.00,12.0,130.0,"20:42:24",1
"21/03/29","21:00",0.0,15.7,78.1,1004.1,17.3,0.6,1.2,43.4,0.00,11.9,130.0,"20:50:48",1
"21/03/29","21:10",0.0,15.7,78.7,1004.1,17.4,0.7,1.6,359.3,0.00,12.1,130.0,"21:07:52",1
"21/03/29","21:20",0.0,15.5,79.0,1004.1,5.6,0.6,1.7,307.6,0.00,11.9,130.0,"21:18:40",1
"21/03/29","21:30",0.0,15.2,79.4,1003.8,325.9,1.1,2.0,319.9,0.00,11.7,130.0,"21:28:16",1
"21/03/29","21:40",0.0,15.0,80.2,1004.3,309.5,1.2,1.9,298.8,0.00,11.7,130.0,"21:38:16",1
"21/03/29","21:50",0.0,14.6,80.9,1004.3,299.1,1.2,1.7,301.8,0.00,11.4,130.0,"21:40:08",1
"21/03/29","22:00",0.0,14.4,82.1,1004.3,324.8,1.5,1.9,329.4,0.00,11.4,130.0,"21:59:44",1
"21/03/29","22:10",0.0,14.0,83.2,1004.3,312.2,1.6,1.9,317.1,0.00,11.2,130.0,"22:00:16",1
"21/03/29","22:20",0.0,13.8,84.2,1004.5,305.1,1.6,2.0,328.1,0.00,11.2,130.0,"22:19:44",1
"21/03/29","22:30",0.0,13.5,85.1,1004.3,304.0,1.5,2.2,321.5,0.00,11.1,130.0,"22:20:16",1
"21/03/29","22:40",0.0,13.3,85.9,1004.3,292.8,1.3,1.6,289.7,0.00,11.0,130.0,"22:30:24",1
"21/03/29","22:50",0.0,13.2,86.6,1004.8,286.3,1.3,2.0,303.5,0.00,11.1,130.0,"22:47:06",1
"21/03/29","23:00",0.0,13.1,87.2,1004.8,304.7,1.7,2.9,317.2,0.00,11.1,130.0,"22:56:56",1
"21/03/29","23:10",0.0,12.9,87.6,1004.8,307.5,1.3,2.1,316.9,0.00,10.9,130.0,"23:01:12",1
"21/03/29","23:20",0.0,12.9,88.3,1004.5,311.7,2.0,3.4,314.9,0.00,11.1,130.0,"23:12:54",1
"21/03/29","23:30",0.0,12.7,88.8,1004.3,299.1,1.5,2.4,312.6,0.00,10.9,130.0,"23:27:48",1
"21/03/29","23:40",0.0,12.6,89.1,1005.0,290.5,1.5,1.9,312.8,0.00,10.9,130.0,"23:34:20",1
"21/03/29","23:50",0.0,12.5,89.5,1004.8,303.7,1.5,2.0,305.6,0.00,10.9,130.0,"23:44:10",1
"21/03/29","24:00",0.0,12.3,89.9,1004.8,309.7,1.3,2.1,302.3,0.00,10.7,130.0,"23:58:28",1
